Location: Alpha Ridge Park
(39.3209°N, 76.9128°W)
Time: 13:49:24
(UTC-04:00)

Vanguard 1 - All Passes

Search period start: 21 May 2019 00:00
Search period end: 31 May 2019 00:00
Orbit: 653 x 3830 km, 34.2° (Epoch: 19 May)

Date Brightness Start Highest point End Pass type
(mag) Time Alt. Az. Time Alt. Az. Time Alt. Az.
21 May - 11:36:11 10° S 11:39:19 17° SE 11:43:07 10° ESE daylight
21 May - 13:53:05 10° WSW 13:58:32 54° SSE 14:07:52 10° E daylight
21 May - 16:11:58 10° W 16:19:30 61° S 16:33:41 10° ESE daylight
21 May - 18:32:00 10° W 18:42:00 40° SSW 18:58:44 10° SE daylight
21 May - 20:56:26 10° WSW 21:05:39 18° SW 21:17:16 10° S visible
22 May - 11:56:02 10° SSW 11:59:54 25° SSE 12:04:58 10° E daylight
22 May - 14:13:51 10° WSW 14:19:29 59° S 14:29:20 10° E daylight
22 May - 16:32:55 10° W 16:40:39 56° SSW 16:55:01 10° ESE daylight
22 May - 18:53:25 10° W 19:03:16 33° SSW 19:18:54 10° SSE daylight
22 May - 21:21:58 10° SW 21:26:58 12° SW 21:32:34 10° SSW visible
23 May - 12:16:20 10° SW 12:20:35 33° SSE 12:26:30 10° E daylight
23 May - 14:34:40 10° WSW 14:40:28 61° S 14:50:48 10° ESE daylight
23 May - 16:53:54 10° W 17:01:48 49° SSW 17:16:08 10° SE daylight
23 May - 19:15:11 10° W 19:24:34 26° SSW 19:38:30 10° SSE daylight
24 May - 12:36:52 10° SW 12:41:21 42° SSE 12:47:54 10° E daylight
24 May - 14:55:31 10° W 15:01:30 59° S 15:12:13 10° ESE daylight
24 May - 17:14:59 10° W 17:23:00 41° SSW 17:36:58 10° SE daylight
24 May - 19:37:32 10° WSW 19:45:53 20° SSW 19:57:15 10° S daylight
25 May - 10:40:17 10° S 10:42:59 16° SSE 10:45:55 10° ESE daylight
25 May - 12:57:33 10° WSW 13:02:12 49° SSE 13:09:16 10° E daylight
25 May - 15:16:25 10° W 15:22:33 55° S 15:33:32 10° ESE daylight
25 May - 17:36:14 10° W 17:44:12 34° SSW 17:57:26 10° SE daylight
25 May - 20:01:18 10° WSW 20:07:14 14° SW 20:14:25 10° S daylight
26 May - 11:00:11 10° SSW 11:03:41 23° SSE 11:07:40 10° ESE daylight
26 May - 13:18:19 10° WSW 13:23:07 54° S 13:30:35 10° E daylight
26 May - 15:37:20 10° W 15:43:37 48° SSW 15:54:43 10° ESE daylight
26 May - 17:57:45 10° WSW 18:05:27 27° SSW 18:17:25 10° SSE daylight
27 May - 11:20:32 10° SW 11:24:27 31° SSE 11:29:05 10° E daylight
27 May - 13:39:10 10° WSW 13:44:04 55° S 13:51:53 10° ESE daylight
27 May - 15:58:22 10° W 16:04:43 41° SSW 16:15:41 10° SE daylight
27 May - 18:19:43 10° WSW 18:26:43 20° SSW 18:36:42 10° SSE daylight
28 May - 09:24:45 10° SSE 09:25:56 11° SSE 09:27:07 10° SE daylight
28 May - 11:41:07 10° SW 11:45:15 39° SSE 11:50:21 10° E daylight
28 May - 14:00:02 10° W 14:05:02 52° S 14:13:08 10° ESE daylight
28 May - 16:19:30 10° W 16:25:50 34° SSW 16:36:21 10° SE daylight
28 May - 18:42:41 10° WSW 18:48:02 14° SSW 18:54:48 10° S daylight
29 May - 09:43:44 10° SSW 09:46:45 17° SSE 09:49:39 10° ESE daylight
29 May - 12:01:51 10° WSW 12:06:07 45° S 12:11:33 10° E daylight
29 May - 14:20:57 10° W 14:26:02 47° S 14:34:17 10° ESE daylight
29 May - 16:40:51 10° WSW 16:47:00 27° SSW 16:56:36 10° SSE daylight
30 May - 10:03:49 10° SSW 10:07:34 24° SSE 10:11:11 10° ESE daylight
30 May - 12:22:41 10° WSW 12:27:00 49° S 12:32:43 10° ESE daylight
30 May - 14:41:55 10° W 14:47:03 40° SSW 14:55:17 10° SE daylight
30 May - 17:02:34 10° WSW 17:08:12 20° SSW 17:16:16 10° SSE daylight
